This is the latest recevied weather packets stored in our database for station/object lu6fg. If no packets are shown the sender has not sent any weather packets the latest 10 day(s).
| Time | Temp. | Humidity | Pressure | Rain* | Wind** | Luminosity | Snow |
|---|---|---|---|---|---|---|---|
| 1777480084 | 21.67° C | 61% | 1012.4 hPa | 0 mm | - | - | - |
| 1777479544 | 21.11° C | 62% | 1012.7 hPa | 0 mm | - | - | - |
| 1777479424 | 21.11° C | 63% | 1012.6 hPa | 0 mm | - | - | - |
| 1777479145 | 20.56° C | 63% | 1012.6 hPa | 0 mm | - | - | - |
| 1777478704 | 21.11° C | 62% | 1012.5 hPa | 0 mm | - | - | - |
| 1777478344 | 20.56° C | 64% | 1012.8 hPa | 0 mm | - | - | - |
| 1777478305 | 20.56° C | 64% | 1012.8 hPa | 0 mm | - | - | - |
| 1777478164 | 20.56° C | 65% | 1012.6 hPa | 0 mm | - | - | - |
| 1777477864 | 20° C | 65% | 1012.9 hPa | 0 mm | - | - | - |
| 1777477624 | 20° C | 65% | 1012.8 hPa | 0 mm | - | - | - |
| 1777477525 | 20° C | 65% | 1012.9 hPa | 0 mm | - | - | - |
| 1777477324 | 20° C | 65% | 1012.9 hPa | 0 mm | - | - | - |
| 1777477264 | 20° C | 65% | 1012.9 hPa | 0 mm | - | - | - |
| 1777477084 | 20° C | 64% | 1012.9 hPa | 0 mm | - | - | - |
| 1777477024 | 20° C | 64% | 1013.1 hPa | 0 mm | - | - | - |
| 1777476904 | 20° C | 64% | 1013.1 hPa | 0 mm | - | - | - |
| 1777476844 | 20° C | 64% | 1012.9 hPa | 0 mm | - | - | - |
| 1777476805 | 20° C | 64% | 1013.1 hPa | 0 mm | - | - | - |
| 1777476424 | 20.56° C | 64% | 1013.2 hPa | 0 mm | - | - | - |
| 1777476364 | 20.56° C | 64% | 1013.2 hPa | 0 mm | - | - | - |
| 1777476304 | 20.56° C | 63% | 1013.1 hPa | 0 mm | - | - | - |
| 1777476064 | 20° C | 63% | 1012.9 hPa | 0 mm | - | - | - |
| 1777476004 | 20° C | 64% | 1013.1 hPa | 0 mm | - | - | - |
| 1777475404 | 19.44° C | 64% | 1013.2 hPa | 0 mm | - | - | - |
| 1777475224 | 19.44° C | 64% | 1013.2 hPa | 0 mm | - | - | - |
* Rain latest hour (hover to see other rain measurements)
** Current wind speed in m/s (hover to see current wind gust speed)